IRIDIUM 137 (43076 NORAD) Tracking and Keplerian Element Data

This shows tracking and keplerian element data for the satellite.

Feedback or suggestion? Click here.




ElementValue
Catalog43076
NameIRIDIUM 137
Epoch Orbit24935
Epoch Day269.97835774
Epoch Year2022
RAAN170.1687
Inclination86.4042
Eccentricity0.0001827
Argument of Perigee78.7131
Mean Anonmoly281.427
Mean Motion14.34214208
Decay Rate2.03E-06
L11 43076U 17083G 22269.97835774 .00000203 00000+0 65319-4 0 9992
L22 43076 86.4042 170.1687 0001827 78.7131 281.4270 14.34214208249357

Live tracking and technical data element details for IRIDIUM 137 (NORAD 43076). IRIDIUM 137 can be tracked NOW for your location showing map with azimuth and elevation plus other details from your city location.

Track the satellite on the map from your city or location and see movement details for azimuth, elevation, latitude, longitude, range, height, and movement on the map or in text.







IsCatalogInMostPopularTable: catalog: 43076, numindb: 687
Update: records affected: 1



GetName: 43076 IRIDIUM 137

Hit Count: updated at: Thu, 29 Sep 2022 11:22:11 GMT